Flag for USA

Past Weather in Manassas, Virginia, USA — Yesterday and Last 2 Weeks

Now
61 °F

Clear.


Feels Like: 61 °F
Forecast: 76 / 56 °F
Wind: No wind

Location: Manassas Municipal
Current Time: Oct 24, 2020 at 12:23:57 am
Latest Report: Oct 23, 2020 at 11:56 pm
Visibility: 10 mi
Pressure30.04 "Hg
Humidity: 90%
Dew Point: 58 °F
Location of ManassasLocation

Past Weather in Manassas — Graph

°F

Manassas Temperature Yesterday

Maximum temperature yesterday: 78 °F (at 1:56 pm)
Minimum temperature yesterday: 54 °F (at 4:15 am)
Average temperature yesterday: 62 °F

High & Low Weather Summary for the Past Weeks

 TemperatureHumidityPressure
High80 °F (Oct 21, 3:56 pm)100% (Oct 11, 4:23 am)30.47 "Hg (Oct 11, 4:23 am)
Low34 °F (Oct 18, 6:56 am)29% (Oct 17, 4:56 pm)29.92 "Hg (Oct 15, 5:56 pm)
Average60 °F85%30.16 "Hg
* Reported Oct 8 10:56 pm — Oct 23 10:56 pm, Manassas. Weather by CustomWeather, © 2020

Note: Actual official high and low records may vary slightly from our data, if they occured in-between our weather recording intervals... More about our weather records

Manassas Weather History for the Previous 24 Hours

Scroll right to see more
 ConditionsComfort  
Time TempWeatherWind HumidityBarometerVisibility
10:56 pm
Fri, Oct 23
61 °FClear.5 mph93%30.05 "Hg10 mi
9:56 pm63 °FClear.3 mph90%30.05 "Hg10 mi
8:56 pm64 °FClear.6 mph87%30.06 "Hg10 mi
7:56 pm66 °FClear.8 mph84%30.06 "Hg10 mi
6:56 pm68 °FClear.6 mph78%30.07 "Hg10 mi
5:56 pm72 °FSunny.9 mph71%30.06 "Hg10 mi
4:56 pm75 °FSunny.10 mph62%30.08 "Hg10 mi
3:56 pm75 °FScattered clouds.8 mph62%30.09 "Hg10 mi
2:56 pm78 °FBroken clouds.12 mph56%30.11 "Hg10 mi
1:56 pm78 °FSunny.10 mph54%30.12 "Hg10 mi
12:56 pm76 °FSunny.10 mph64%30.16 "Hg10 mi
11:56 am73 °FPassing clouds.5 mph74%30.19 "Hg10 mi
10:56 am66 °FSunny.No wind90%30.21 "Hg10 mi
10:34 am64 °FScattered clouds.3 mph100%30.21 "Hg10 mi
9:56 am62 °FFog.3 mph100%30.23 "Hg4 mi
9:07 am61 °FFog.5 mph100%30.21 "Hg0 mi
9:03 am61 °FFog.No wind100%30.21 "Hg1 mi
8:40 am57 °FScattered clouds.No wind100%30.21 "Hg10 mi
7:56 am54 °FSunny.No wind100%30.21 "Hg9 mi
6:56 am55 °FClear.No wind100%30.19 "Hg10 mi
6:30 am55 °FPassing clouds.No wind100%30.17 "Hg10 mi
6:16 am55 °FPassing clouds.No wind100%30.17 "Hg10 mi
6:08 am55 °FFog.No wind100%30.17 "Hg2 mi
6:01 am55 °FFog.No wind100%30.17 "Hg1 mi
5:24 am55 °FFog.No wind100%30.17 "Hg1 mi
4:56 am56 °FFog.No wind100%30.17 "Hg0 mi
4:32 am55 °FFog.No wind100%30.16 "Hg2 mi
4:15 am54 °FFog.No wind100%30.16 "Hg4 mi
3:43 am55 °FFog.No wind100%30.16 "Hg1 mi
3:16 am55 °FFog.No wind100%30.17 "Hg0 mi
2:36 am57 °FPassing clouds.No wind100%30.17 "Hg10 mi
2:12 am57 °FFog.No wind94%30.18 "Hg1 mi
2:05 am57 °FFog.No wind94%30.18 "Hg1 mi
1:31 am57 °FFog.No wind100%30.18 "Hg6 mi
1:21 am55 °FFog.No wind100%30.19 "Hg0 mi
12:56 am59 °FClear.No wind96%30.21 "Hg10 mi
Weather by CustomWeather, © 2020

See weather overview